Weather History for Albany, GA

Change the Weather History Date:

Thursday, September 12, 2013

  Actual Average Record
Temperature  
Mean Temperature 82 °F 79 °F  
Max Temperature 94 °F 89 °F 101 °F (1954)
Min Temperature 69 °F 69 °F 51 °F (1940)
Degree Days  
Heating Degree Days 0 0  
Month to date heating degree days 0 0  
Since 1 July heating degree days 0 0  
Cooling Degree Days 17 14  
Month to date cooling degree days 203 180  
Year to date cooling degree days 2024 2153  
Growing Degree Days 30 (Base 50)    
Moisture  
Dew Point 67 °F    
Average Humidity 71    
Maximum Humidity 100    
Minimum Humidity 41    
Precipitation  
Precipitation 0.00 in - 0.70 in (2007)
Month to date precipitation 0.20  
Year to date precipitation 41.56  
Sea Level Pressure  
Sea Level Pressure 30.02 in    
Wind  
Wind Speed 2 mph (NNE)    
Max Wind Speed 9 mph    
Max Gust Speed 13 mph    
Visibility 10 miles    
Events      
T = Trace of Precipitation, MM = Missing Value Source: NWS Daily Summary

Daily Weather History Graph

Daily Weather History Graph

Search for Another Location

Airport:

Trip Planner

Search our weather history database for the weather conditions in past years. The results will help you decide how hot, cold, wet, or windy it might be!

Date:

Astronomy

Sep. 12, 2013 Rise Set
Actual Time 7:19 AM EDT 7:46 PM EDT
Civil Twilight 6:54 AM EDT 8:10 PM EDT
Nautical Twilight 6:26 AM EDT 8:39 PM EDT
Astronomical Twilight 5:57 AM EDT 9:08 PM EDT
Moon 2:21 PM EDT (9/12) 12:06 AM EDT (9/12)
Length of Visible Light 13h 15m
Length of Day
12h 26m
Waxing Crescent, 50% of the Moon is Illuminated
Sep 12
Waxing Crescent
Sep 12
First Quarter
Sep 19
Full
Sep 26
Last Quarter
Oct 4
New

Hourly Weather History & Observations

Time (EDT) Temp. Heat Index Dew Point Humidity Pressure Visibility Wind Dir Wind Speed Gust Speed Precip Events Conditions
12:53 AM 73.0 °F - 69.1 °F 87% 30.10 in 10.0 mi Calm Calm - N/A   Clear
1:53 AM 72.0 °F - 69.1 °F 91% 30.09 in 10.0 mi Calm Calm - N/A   Clear
2:53 AM 72.0 °F - 69.1 °F 91% 30.09 in 10.0 mi Calm Calm - N/A   Clear
3:53 AM 71.1 °F - 69.1 °F 93% 30.09 in 10.0 mi Calm Calm - N/A   Clear
4:53 AM 71.1 °F - 69.1 °F 93% 30.08 in 9.0 mi Calm Calm - N/A   Clear
5:53 AM 70.0 °F - 68.0 °F 93% 30.08 in 8.0 mi Calm Calm - N/A   Clear
6:53 AM 70.0 °F - 69.1 °F 97% 30.09 in 9.0 mi Calm Calm - N/A   Clear
7:53 AM 70.0 °F - 69.1 °F 97% 30.09 in 7.0 mi Calm Calm - N/A   Clear
8:53 AM 75.0 °F - 71.1 °F 87% 30.09 in 9.0 mi Calm Calm - N/A   Clear
9:53 AM 82.0 °F 86.7 °F 72.0 °F 71% 30.09 in 10.0 mi NNE 3.5 mph - N/A   Clear
10:53 AM 84.0 °F 87.8 °F 69.1 °F 61% 30.08 in 10.0 mi Variable 3.5 mph - N/A   Clear
11:53 AM 87.1 °F 89.2 °F 66.0 °F 49% 30.08 in 10.0 mi North 8.1 mph - N/A   Clear
12:53 PM 88.0 °F 90.7 °F 66.9 °F 49% 30.05 in 10.0 mi Variable 4.6 mph - N/A   Scattered Clouds
1:53 PM 89.1 °F 91.0 °F 64.9 °F 45% 30.03 in 10.0 mi ESE 6.9 mph - N/A   Scattered Clouds
2:53 PM 88.0 °F 89.3 °F 64.0 °F 45% 30.00 in 10.0 mi Calm Calm - N/A   Scattered Clouds
3:53 PM 91.9 °F 93.3 °F 64.0 °F 39% 29.97 in 10.0 mi Variable 4.6 mph - N/A   Mostly Cloudy
4:53 PM 89.1 °F 90.0 °F 63.0 °F 42% 29.95 in 10.0 mi WSW 4.6 mph - N/A   Mostly Cloudy
5:53 PM 90.0 °F 91.3 °F 64.0 °F 42% 29.94 in 10.0 mi Calm Calm - N/A   Mostly Cloudy
6:53 PM 89.1 °F 90.0 °F 63.0 °F 42% 29.93 in 10.0 mi Calm Calm - N/A   Overcast
6:55 PM 89.6 °F 90.1 °F 62.6 °F 40% 29.93 in 10.0 mi Calm Calm - N/A   Partly Cloudy
7:53 PM 82.0 °F 84.5 °F 66.9 °F 60% 29.93 in 10.0 mi Calm Calm - N/A   Clear
8:53 PM 77.0 °F - 68.0 °F 74% 29.95 in 10.0 mi Calm Calm - N/A   Clear
9:53 PM 73.0 °F - 68.0 °F 84% 29.96 in 10.0 mi Calm Calm - N/A   Clear
10:53 PM 73.0 °F - 69.1 °F 87% 29.96 in 10.0 mi Calm Calm - N/A   Clear
11:53 PM 73.0 °F - 68.0 °F 84% 29.96 in 10.0 mi Calm Calm - N/A   Clear